Simultaneous Nadir Overpasses (SNOs) Predictions

Prediction of SNOs between LANDSAT-8 and METOP-B Satellite Orbit:

Table of predicted SNOs for the next 14.0 days since TLE Epoch: 10/3/2015
Index Date (LANDSAT-8) Time (LANDSAT-8) Lat,Lon (LANDSAT-8) SZA (LANDSAT-8 ) Date (METOP-B) Time (METOP-B) Lat,Lon (METOP-B) SZA (METOP-B ) Distance(km) Time Diff (sec)
1 10/03/2015 20:36:18 -81.16, 91.51 92.40 10/03/2015 20:35:52 -81.16, 91.65 92.39 2.41 26
2 10/03/2015 21:25:44 81.17,-100.75 87.64 10/03/2015 21:26:32 81.17,-100.70 87.67 0.86 48
3 10/06/2015 16:10:33 -81.14, 157.68 91.34 10/06/2015 16:10:14 -81.14, 157.53 91.36 2.50 19
4 10/06/2015 16:59:58 81.17, -34.24 88.75 10/06/2015 17:00:52 81.18, -34.08 88.79 2.93 54
5 10/09/2015 11:44:48 -81.14,-135.89 90.25 10/09/2015 11:44:35 -81.15,-135.88 90.25 0.65 13
6 10/09/2015 12:34:13 81.17, 32.16 89.83 10/09/2015 12:35:14 81.17, 32.13 89.86 0.59 61
7 10/12/2015 07:19:02 -81.16, -69.19 89.13 10/12/2015 07:18:56 -81.15, -69.31 89.15 2.25 6
8 10/12/2015 08:08:27 81.18, 98.84 90.95 10/12/2015 08:09:35 81.18, 98.68 90.95 2.95 68
9 10/15/2015 02:03:50 81.15,-170.61 91.89 10/15/2015 02:02:37 81.15,-170.43 91.88 2.95 73
10 10/15/2015 02:53:16 -81.17, -2.58 88.04 10/15/2015 02:53:16 -81.17, -2.41 88.02 2.92 0




NCC Satellite Simultaneous Nadir Overpasses (SNOs) Prediction Service
